Year,Month,Day,Hour,Minute,Value (Times are PST for temperature in C)
2016,04,01,00,00,10.90
2016,04,01,00,01,10.80
2016,04,01,00,02,10.80
2016,04,01,00,03,10.80
2016,04,01,00,04,10.70
2016,04,01,00,05,10.70
2016,04,01,00,06,10.60
2016,04,01,00,07,10.60
2016,04,01,00,08,10.50
2016,04,01,00,09,10.40
2016,04,01,00,10,10.40
2016,04,01,00,11,10.40
2016,04,01,00,12,10.40
2016,04,01,00,13,10.30
2016,04,01,00,14,10.30
2016,04,01,00,15,10.30
2016,04,01,00,16,10.20
2016,04,01,00,17,10.20
2016,04,01,00,18,10.20
2016,04,01,00,19,10.20
2016,04,01,00,20,10.20
2016,04,01,00,21,10.20
2016,04,01,00,22,10.20
2016,04,01,00,23,10.20
2016,04,01,00,24,10.20
2016,04,01,00,25,10.20
2016,04,01,00,26,10.20
2016,04,01,00,27,10.20
2016,04,01,00,28,10.20
2016,04,01,00,29,10.20
2016,04,01,00,30,10.20
2016,04,01,00,31,10.20
2016,04,01,00,32,10.10
2016,04,01,00,33,10.10
2016,04,01,00,34,10.10
2016,04,01,00,35,10.10
2016,04,01,00,36,10.10
2016,04,01,00,37,10.10
2016,04,01,00,38,10.10
2016,04,01,00,39,10.10
2016,04,01,00,40,10.10
2016,04,01,00,41,10.10
2016,04,01,00,42,10.10
2016,04,01,00,43,10.10
2016,04,01,00,44,10.10
2016,04,01,00,45,10.10
2016,04,01,00,46,10.10
2016,04,01,00,47,10.10
2016,04,01,00,48,10.10
2016,04,01,00,49,10.20
2016,04,01,00,50,10.20
2016,04,01,00,51,10.20
2016,04,01,00,52,10.20
2016,04,01,00,53,10.20
2016,04,01,00,54,10.20
2016,04,01,00,55,10.20
2016,04,01,00,56,10.20
2016,04,01,00,57,10.20
2016,04,01,00,58,10.20
2016,04,01,00,59,10.20
2016,04,01,01,00,10.20
2016,04,01,01,01,10.20
2016,04,01,01,02,10.20
2016,04,01,01,03,10.20
2016,04,01,01,04,10.20
2016,04,01,01,05,10.20
2016,04,01,01,06,10.20
2016,04,01,01,07,10.20
2016,04,01,01,08,10.20
2016,04,01,01,09,10.20
2016,04,01,01,10,10.20
2016,04,01,01,11,10.20
2016,04,01,01,12,10.20
2016,04,01,01,13,10.20
2016,04,01,01,14,10.20
2016,04,01,01,15,10.20
2016,04,01,01,16,10.20
2016,04,01,01,17,10.20
2016,04,01,01,18,10.20
2016,04,01,01,19,10.30
2016,04,01,01,20,10.20
2016,04,01,01,21,10.20
2016,04,01,01,22,10.20
2016,04,01,01,23,10.20
2016,04,01,01,24,10.20
2016,04,01,01,25,10.20
2016,04,01,01,26,10.10
2016,04,01,01,27,10.10
2016,04,01,01,28,10.10
2016,04,01,01,29,10.10
2016,04,01,01,30,10.10
2016,04,01,01,31,10.10
2016,04,01,01,32,10.10
2016,04,01,01,33,10.10
2016,04,01,01,34,10.10
2016,04,01,01,35,10.10
2016,04,01,01,36,10.10
2016,04,01,01,37,10.10
2016,04,01,01,38,10.10
2016,04,01,01,39,10.10
2016,04,01,01,40,10.10
2016,04,01,01,41,10.10
2016,04,01,01,42,10.10
2016,04,01,01,43,10.20
2016,04,01,01,44,10.20
2016,04,01,01,45,10.30
2016,04,01,01,46,10.30
2016,04,01,01,47,10.40
2016,04,01,01,48,10.40
2016,04,01,01,49,10.40
2016,04,01,01,50,10.40
2016,04,01,01,51,10.60
2016,04,01,01,52,10.60
2016,04,01,01,53,10.60
2016,04,01,01,54,10.60
2016,04,01,01,55,10.60
2016,04,01,01,56,10.60
2016,04,01,01,57,10.60
2016,04,01,01,58,10.60
2016,04,01,01,59,10.60
2016,04,01,02,00,10.70
2016,04,01,02,01,10.70
2016,04,01,02,02,10.70
2016,04,01,02,03,10.70
2016,04,01,02,04,10.70
2016,04,01,02,05,10.60
2016,04,01,02,06,10.60
2016,04,01,02,07,10.60
2016,04,01,02,08,10.60
2016,04,01,02,09,10.60
2016,04,01,02,10,10.60
2016,04,01,02,11,10.60
2016,04,01,02,12,10.60
2016,04,01,02,13,10.60
2016,04,01,02,14,10.60
2016,04,01,02,15,10.50
2016,04,01,02,16,10.40
2016,04,01,02,17,10.40
2016,04,01,02,18,10.40
2016,04,01,02,19,10.40
2016,04,01,02,20,10.30
2016,04,01,02,21,10.30
2016,04,01,02,22,10.20
2016,04,01,02,23,10.20
2016,04,01,02,24,10.10
2016,04,01,02,25,10.10
2016,04,01,02,26,10.10
2016,04,01,02,27,10.10
2016,04,01,02,28,10.00
2016,04,01,02,29,9.90
2016,04,01,02,30,9.90
2016,04,01,02,31,9.90
2016,04,01,02,32,9.90
2016,04,01,02,33,9.90
2016,04,01,02,34,9.80
2016,04,01,02,35,9.80
2016,04,01,02,36,9.80
2016,04,01,02,37,9.70
2016,04,01,02,38,9.70
2016,04,01,02,39,9.70
2016,04,01,02,40,9.70
2016,04,01,02,41,9.70
2016,04,01,02,42,9.60
2016,04,01,02,43,9.60
2016,04,01,02,44,9.60
2016,04,01,02,45,9.60
2016,04,01,02,46,9.60
2016,04,01,02,47,9.60
2016,04,01,02,48,9.60
2016,04,01,02,49,9.60
2016,04,01,02,50,9.70
2016,04,01,02,51,9.70
2016,04,01,02,52,9.70
2016,04,01,02,53,9.70
2016,04,01,02,54,9.70
2016,04,01,02,55,9.70
2016,04,01,02,56,9.70
2016,04,01,02,57,9.70
2016,04,01,02,58,9.60
2016,04,01,02,59,9.60
2016,04,01,03,00,9.60
2016,04,01,03,01,9.50
2016,04,01,03,02,9.50
2016,04,01,03,03,9.40
2016,04,01,03,04,9.40
2016,04,01,03,05,9.40
2016,04,01,03,06,9.30
2016,04,01,03,07,9.30
2016,04,01,03,08,9.20
2016,04,01,03,09,9.20
2016,04,01,03,10,9.20
2016,04,01,03,11,9.20
2016,04,01,03,12,9.10
2016,04,01,03,13,9.10
2016,04,01,03,14,9.00
2016,04,01,03,15,9.00
2016,04,01,03,16,9.00
2016,04,01,03,17,8.90
2016,04,01,03,18,8.90
2016,04,01,03,19,8.90
2016,04,01,03,20,8.80
2016,04,01,03,21,8.80
2016,04,01,03,22,8.80
2016,04,01,03,23,8.80
2016,04,01,03,24,8.80
2016,04,01,03,25,8.80
2016,04,01,03,26,8.70
2016,04,01,03,27,8.70
2016,04,01,03,28,8.70
2016,04,01,03,29,8.70
2016,04,01,03,30,8.70
2016,04,01,03,31,8.70
2016,04,01,03,32,8.70
2016,04,01,03,33,8.70
2016,04,01,03,34,8.70
2016,04,01,03,35,8.70
2016,04,01,03,36,8.70
2016,04,01,03,37,8.70
2016,04,01,03,38,8.80
2016,04,01,03,39,8.80
2016,04,01,03,40,8.80
2016,04,01,03,41,8.80
2016,04,01,03,42,8.80
2016,04,01,03,43,8.80
2016,04,01,03,44,8.80
2016,04,01,03,45,8.80
2016,04,01,03,46,8.80
2016,04,01,03,47,8.80
2016,04,01,03,48,8.80
2016,04,01,03,49,8.80
2016,04,01,03,50,8.80
2016,04,01,03,51,8.90
2016,04,01,03,52,8.90
2016,04,01,03,53,8.90
2016,04,01,03,54,8.90
2016,04,01,03,55,8.90
2016,04,01,03,56,8.90
2016,04,01,03,57,8.90
2016,04,01,03,58,8.90
2016,04,01,03,59,8.90
2016,04,01,04,00,8.90
2016,04,01,04,01,8.90
2016,04,01,04,02,8.80
2016,04,01,04,03,8.80
2016,04,01,04,04,8.90
2016,04,01,04,05,8.90
2016,04,01,04,06,8.90
2016,04,01,04,07,9.00
2016,04,01,04,08,9.10
2016,04,01,04,09,9.20
2016,04,01,04,10,9.20
2016,04,01,04,11,9.30
2016,04,01,04,12,9.30
2016,04,01,04,13,9.40
2016,04,01,04,14,9.40
2016,04,01,04,15,9.50
2016,04,01,04,16,9.50
2016,04,01,04,17,9.50
2016,04,01,04,18,9.50
2016,04,01,04,19,9.50
2016,04,01,04,20,9.50
2016,04,01,04,21,9.50
2016,04,01,04,22,9.50
2016,04,01,04,23,9.50
2016,04,01,04,24,9.50
2016,04,01,04,25,9.40
2016,04,01,04,26,9.40
2016,04,01,04,27,9.40
2016,04,01,04,28,9.40
2016,04,01,04,29,9.40
2016,04,01,04,30,9.40
2016,04,01,04,31,9.40
2016,04,01,04,32,9.40
2016,04,01,04,33,9.40
2016,04,01,04,34,9.40
2016,04,01,04,35,9.30
2016,04,01,04,36,9.30
2016,04,01,04,37,9.30
2016,04,01,04,38,9.30
2016,04,01,04,39,9.20
2016,04,01,04,40,9.20
2016,04,01,04,41,9.20
2016,04,01,04,42,9.20
2016,04,01,04,43,9.20
2016,04,01,04,44,9.20
2016,04,01,04,45,9.10
2016,04,01,04,46,9.10
2016,04,01,04,47,9.10
2016,04,01,04,48,9.00
2016,04,01,04,49,9.00
2016,04,01,04,50,9.00
2016,04,01,04,51,9.00
2016,04,01,04,52,9.00
2016,04,01,04,53,8.90
2016,04,01,04,54,8.90
2016,04,01,04,55,8.90
2016,04,01,04,56,8.80
2016,04,01,04,57,8.80
2016,04,01,04,58,8.70
2016,04,01,04,59,8.70
2016,04,01,05,00,8.70
2016,04,01,05,01,8.60
2016,04,01,05,02,8.50
2016,04,01,05,03,8.50
2016,04,01,05,04,8.40
2016,04,01,05,05,8.30
2016,04,01,05,06,8.30
2016,04,01,05,07,8.20
2016,04,01,05,08,8.20
2016,04,01,05,09,8.20
2016,04,01,05,10,8.10
2016,04,01,05,11,8.10
2016,04,01,05,12,8.00
2016,04,01,05,13,8.00
2016,04,01,05,14,7.90
2016,04,01,05,15,7.90
2016,04,01,05,16,7.90
2016,04,01,05,17,7.80
2016,04,01,05,18,7.80
2016,04,01,05,19,7.80
2016,04,01,05,20,7.80
2016,04,01,05,21,7.80
2016,04,01,05,22,7.80
2016,04,01,05,23,7.80
2016,04,01,05,24,7.80
2016,04,01,05,25,7.80
2016,04,01,05,26,7.80
2016,04,01,05,27,7.80
2016,04,01,05,28,7.80
2016,04,01,05,29,7.80
2016,04,01,05,30,7.80
2016,04,01,05,31,7.90
2016,04,01,05,32,7.90
2016,04,01,05,33,7.90
2016,04,01,05,34,8.00
2016,04,01,05,35,8.00
2016,04,01,05,36,8.00
2016,04,01,05,37,8.00
2016,04,01,05,38,8.10
2016,04,01,05,39,8.10
2016,04,01,05,40,8.10
2016,04,01,05,41,8.00
2016,04,01,05,42,8.00
2016,04,01,05,43,8.00
2016,04,01,05,44,7.90
2016,04,01,05,45,7.90
2016,04,01,05,46,7.90
2016,04,01,05,47,7.80
2016,04,01,05,48,7.80
2016,04,01,05,49,7.80
2016,04,01,05,50,7.80
2016,04,01,05,51,7.70
2016,04,01,05,52,7.70
2016,04,01,05,53,7.70
2016,04,01,05,54,7.60
2016,04,01,05,55,7.60
2016,04,01,05,56,7.60
2016,04,01,05,57,7.50
2016,04,01,05,58,7.50
2016,04,01,05,59,7.50
2016,04,01,06,00,7.40
2016,04,01,06,01,7.40
2016,04,01,06,02,7.40
2016,04,01,06,03,7.40
2016,04,01,06,04,7.30
2016,04,01,06,05,7.30
2016,04,01,06,06,7.30
2016,04,01,06,07,7.30
2016,04,01,06,08,7.30
2016,04,01,06,09,7.30
2016,04,01,06,10,7.30
2016,04,01,06,11,7.30
2016,04,01,06,12,7.30
2016,04,01,06,13,7.30
2016,04,01,06,14,7.20
2016,04,01,06,15,7.20
2016,04,01,06,16,7.20
2016,04,01,06,17,7.20
2016,04,01,06,18,7.20
2016,04,01,06,19,7.10
2016,04,01,06,20,7.10
2016,04,01,06,21,7.10
2016,04,01,06,22,7.10
2016,04,01,06,23,7.10
2016,04,01,06,24,7.10
2016,04,01,06,25,7.10
2016,04,01,06,26,7.10
2016,04,01,06,27,7.10
2016,04,01,06,28,7.10
2016,04,01,06,29,7.00
2016,04,01,06,30,7.00
2016,04,01,06,31,7.00
2016,04,01,06,32,7.00
2016,04,01,06,33,7.00
2016,04,01,06,34,7.00
2016,04,01,06,35,7.00
2016,04,01,06,36,7.00
2016,04,01,06,37,7.00
2016,04,01,06,38,7.00
2016,04,01,06,39,6.90
2016,04,01,06,40,6.90
2016,04,01,06,41,6.90
2016,04,01,06,42,6.90
2016,04,01,06,43,6.90
2016,04,01,06,44,6.90
2016,04,01,06,45,6.90
2016,04,01,06,46,6.90
2016,04,01,06,47,6.90
2016,04,01,06,48,6.80
2016,04,01,06,49,6.80
2016,04,01,06,50,6.80
2016,04,01,06,51,6.80
2016,04,01,06,52,6.80
2016,04,01,06,53,6.80
2016,04,01,06,54,6.80
2016,04,01,06,55,6.80
2016,04,01,06,56,6.80
2016,04,01,06,57,6.80
2016,04,01,06,58,6.80
2016,04,01,06,59,6.80
2016,04,01,07,00,6.80
2016,04,01,07,01,6.80
2016,04,01,07,02,6.80
2016,04,01,07,03,6.80
2016,04,01,07,04,6.80
2016,04,01,07,05,6.80
2016,04,01,07,06,6.80
2016,04,01,07,07,6.80
2016,04,01,07,08,6.80
2016,04,01,07,09,6.80
2016,04,01,07,10,6.80
2016,04,01,07,11,6.80
2016,04,01,07,12,6.80
2016,04,01,07,13,6.70
2016,04,01,07,14,6.70
2016,04,01,07,15,6.70
2016,04,01,07,16,6.80
2016,04,01,07,17,6.80
2016,04,01,07,18,6.80
2016,04,01,07,19,6.80
2016,04,01,07,20,6.80
2016,04,01,07,21,6.80
2016,04,01,07,22,6.80
2016,04,01,07,23,6.80
2016,04,01,07,24,6.80
2016,04,01,07,25,6.80
2016,04,01,07,26,6.80
2016,04,01,07,27,6.80
2016,04,01,07,28,6.80
2016,04,01,07,29,6.80
2016,04,01,07,30,6.80
2016,04,01,07,31,6.80
2016,04,01,07,32,6.80
2016,04,01,07,33,6.80
2016,04,01,07,34,6.80
2016,04,01,07,35,6.80
2016,04,01,07,36,6.80
2016,04,01,07,37,6.80
2016,04,01,07,38,6.90
2016,04,01,07,39,6.90
2016,04,01,07,40,6.90
2016,04,01,07,41,6.90
2016,04,01,07,42,6.90
2016,04,01,07,43,7.00
2016,04,01,07,44,7.00
2016,04,01,07,45,7.00
2016,04,01,07,46,7.00
2016,04,01,07,47,7.00
2016,04,01,07,48,7.00
2016,04,01,07,49,7.10
2016,04,01,07,50,7.10
2016,04,01,07,51,7.10
2016,04,01,07,52,7.10
2016,04,01,07,53,7.10
2016,04,01,07,54,7.20
2016,04,01,07,55,7.20
2016,04,01,07,56,7.20
2016,04,01,07,57,7.30
2016,04,01,07,58,7.30
2016,04,01,07,59,7.30
2016,04,01,08,00,7.30
2016,04,01,08,01,7.30
2016,04,01,08,02,7.30
2016,04,01,08,03,7.30
2016,04,01,08,04,7.40
2016,04,01,08,05,7.40
2016,04,01,08,06,7.40
2016,04,01,08,07,7.40
2016,04,01,08,08,7.40
2016,04,01,08,09,7.40
2016,04,01,08,10,7.50
2016,04,01,08,11,7.50
2016,04,01,08,12,7.60
2016,04,01,08,13,7.70
2016,04,01,08,14,7.80
2016,04,01,08,15,7.80
2016,04,01,08,16,7.90
2016,04,01,08,17,7.90
2016,04,01,08,18,8.00
2016,04,01,08,19,8.00
2016,04,01,08,20,8.00
2016,04,01,08,21,8.10
2016,04,01,08,22,8.20
2016,04,01,08,23,8.20
2016,04,01,08,24,8.20
2016,04,01,08,25,8.20
2016,04,01,08,26,8.20
2016,04,01,08,27,8.20
2016,04,01,08,28,8.20
2016,04,01,08,29,8.30
2016,04,01,08,30,8.30
2016,04,01,08,31,8.30
2016,04,01,08,32,8.40
2016,04,01,08,33,8.40
2016,04,01,08,34,8.50
2016,04,01,08,35,8.60
2016,04,01,08,36,8.70
2016,04,01,08,37,8.70
2016,04,01,08,38,8.80
2016,04,01,08,39,8.90
2016,04,01,08,40,9.00
2016,04,01,08,41,9.00
2016,04,01,08,42,9.10
2016,04,01,08,43,9.10
2016,04,01,08,44,9.20
2016,04,01,08,45,9.20
2016,04,01,08,46,9.20
2016,04,01,08,47,9.20
2016,04,01,08,48,9.30
2016,04,01,08,49,9.30
2016,04,01,08,50,9.40
2016,04,01,08,51,9.40
2016,04,01,08,52,9.40
2016,04,01,08,53,9.40
2016,04,01,08,54,9.40
2016,04,01,08,55,9.40
2016,04,01,08,56,9.40
2016,04,01,08,57,9.50
2016,04,01,08,58,9.50
2016,04,01,08,59,9.50
2016,04,01,09,00,9.60
2016,04,01,09,01,9.60
2016,04,01,09,02,9.60
2016,04,01,09,03,9.70
2016,04,01,09,04,9.70
2016,04,01,09,05,9.70
2016,04,01,09,06,9.80
2016,04,01,09,07,9.80
2016,04,01,09,08,9.90
2016,04,01,09,09,9.90
2016,04,01,09,10,10.00
2016,04,01,09,11,10.10
2016,04,01,09,12,10.20
2016,04,01,09,13,10.30
2016,04,01,09,14,10.40
2016,04,01,09,15,10.50
2016,04,01,09,16,10.70
2016,04,01,09,17,10.80
2016,04,01,09,18,10.90
2016,04,01,09,19,11.10
2016,04,01,09,20,11.20
2016,04,01,09,21,11.30
2016,04,01,09,22,11.40
2016,04,01,09,23,11.40
2016,04,01,09,24,11.50
2016,04,01,09,25,11.60
2016,04,01,09,26,11.60
2016,04,01,09,27,11.70
2016,04,01,09,28,11.70
2016,04,01,09,29,11.70
2016,04,01,09,30,11.70
2016,04,01,09,31,11.70
2016,04,01,09,32,11.80
2016,04,01,09,33,11.80
2016,04,01,09,34,11.80
2016,04,01,09,35,11.80
2016,04,01,09,36,11.90
2016,04,01,09,37,11.90
2016,04,01,09,38,12.00
2016,04,01,09,39,12.10
2016,04,01,09,40,12.10
2016,04,01,09,41,12.20
2016,04,01,09,42,12.30
2016,04,01,09,43,12.30
2016,04,01,09,44,12.40
2016,04,01,09,45,12.40
2016,04,01,09,46,12.50
2016,04,01,09,47,12.50
2016,04,01,09,48,12.60
2016,04,01,09,49,12.70
2016,04,01,09,50,12.70
2016,04,01,09,51,12.80
2016,04,01,09,52,12.80
2016,04,01,09,53,12.80
2016,04,01,09,54,12.80
2016,04,01,09,55,12.90
2016,04,01,09,56,12.90
2016,04,01,09,57,13.00
2016,04,01,09,58,13.00
2016,04,01,09,59,13.10
2016,04,01,10,00,13.20
2016,04,01,10,01,13.30
2016,04,01,10,02,13.40
2016,04,01,10,03,13.50
2016,04,01,10,04,13.60
2016,04,01,10,05,13.70
2016,04,01,10,06,13.80
2016,04,01,10,07,13.90
2016,04,01,10,08,14.00
2016,04,01,10,09,14.10
2016,04,01,10,10,14.20
2016,04,01,10,11,14.30
2016,04,01,10,12,14.40
2016,04,01,10,13,14.50
2016,04,01,10,14,14.60
2016,04,01,10,15,14.80
2016,04,01,10,16,14.90
2016,04,01,10,17,15.00
2016,04,01,10,18,15.10
2016,04,01,10,19,15.20
2016,04,01,10,20,15.30
2016,04,01,10,21,15.40
2016,04,01,10,22,15.50
2016,04,01,10,23,15.60
2016,04,01,10,24,15.60
2016,04,01,10,25,15.70
2016,04,01,10,26,15.70
2016,04,01,10,27,15.80
2016,04,01,10,28,15.80
2016,04,01,10,29,15.80
2016,04,01,10,30,15.80
2016,04,01,10,31,15.70
2016,04,01,10,32,15.70
2016,04,01,10,33,15.70
2016,04,01,10,34,15.80
2016,04,01,10,35,15.80
2016,04,01,10,36,15.80
2016,04,01,10,37,15.80
2016,04,01,10,38,15.80
2016,04,01,10,39,15.80
2016,04,01,10,40,15.70
2016,04,01,10,41,15.70
2016,04,01,10,42,15.60
2016,04,01,10,43,15.60
2016,04,01,10,44,15.60
2016,04,01,10,45,15.60
2016,04,01,10,46,15.60
2016,04,01,10,47,15.70
2016,04,01,10,48,15.70
2016,04,01,10,49,15.70
2016,04,01,10,50,15.70
2016,04,01,10,51,15.70
2016,04,01,10,52,15.70
2016,04,01,10,53,15.80
2016,04,01,10,54,15.80
2016,04,01,10,55,15.90
2016,04,01,10,56,15.90
2016,04,01,10,57,15.90
2016,04,01,10,58,16.00
2016,04,01,10,59,16.00
2016,04,01,11,00,16.10
2016,04,01,11,01,16.10
2016,04,01,11,02,16.10
2016,04,01,11,03,16.10
2016,04,01,11,04,16.10
2016,04,01,11,05,16.10
2016,04,01,11,06,16.20
2016,04,01,11,07,16.30
2016,04,01,11,08,16.30
2016,04,01,11,09,16.30
2016,04,01,11,10,16.30
2016,04,01,11,11,16.30
2016,04,01,11,12,16.30
2016,04,01,11,13,16.40
2016,04,01,11,14,16.40
2016,04,01,11,15,16.50
2016,04,01,11,16,16.60
2016,04,01,11,17,16.70
2016,04,01,11,18,16.80
2016,04,01,11,19,16.80
2016,04,01,11,20,16.80
2016,04,01,11,21,16.80
2016,04,01,11,22,16.80
2016,04,01,11,23,16.90
2016,04,01,11,24,17.00
2016,04,01,11,25,17.10
2016,04,01,11,26,17.20
2016,04,01,11,27,17.30
2016,04,01,11,28,17.30
2016,04,01,11,29,17.30
2016,04,01,11,30,17.30
2016,04,01,11,31,17.30
2016,04,01,11,32,17.30
2016,04,01,11,33,17.30
2016,04,01,11,34,17.20
2016,04,01,11,35,17.30
2016,04,01,11,36,17.30
2016,04,01,11,37,17.20
2016,04,01,11,38,17.20
2016,04,01,11,39,17.20
2016,04,01,11,40,17.20
2016,04,01,11,41,17.20
2016,04,01,11,42,17.30
2016,04,01,11,43,17.30
2016,04,01,11,44,17.30
2016,04,01,11,45,17.30
2016,04,01,11,46,17.30
2016,04,01,11,47,17.30
2016,04,01,11,48,17.30
2016,04,01,11,49,17.30
2016,04,01,11,50,17.30
2016,04,01,11,51,17.30
2016,04,01,11,52,17.30
2016,04,01,11,53,17.30
2016,04,01,11,54,17.40
2016,04,01,11,55,17.40
2016,04,01,11,56,17.50
2016,04,01,11,57,17.60
2016,04,01,11,58,17.60
2016,04,01,11,59,17.60
2016,04,01,12,00,17.60
2016,04,01,12,01,17.70
2016,04,01,12,02,17.70
2016,04,01,12,03,17.80
2016,04,01,12,04,17.80
2016,04,01,12,05,17.90
2016,04,01,12,06,17.90
2016,04,01,12,07,17.90
2016,04,01,12,08,17.90
2016,04,01,12,09,17.90
2016,04,01,12,10,17.90
2016,04,01,12,11,17.90
2016,04,01,12,12,17.90
2016,04,01,12,13,17.90
2016,04,01,12,14,18.10
2016,04,01,12,15,18.10
2016,04,01,12,16,18.20
2016,04,01,12,17,18.20
2016,04,01,12,18,18.20
2016,04,01,12,19,18.20
2016,04,01,12,20,18.30
2016,04,01,12,21,18.40
2016,04,01,12,22,18.40
2016,04,01,12,23,18.50
2016,04,01,12,24,18.50
2016,04,01,12,25,18.60
2016,04,01,12,26,18.60
2016,04,01,12,27,18.60
2016,04,01,12,28,18.60
2016,04,01,12,29,18.60
2016,04,01,12,30,18.50
2016,04,01,12,31,18.50
2016,04,01,12,32,18.50
2016,04,01,12,33,18.50
2016,04,01,12,34,18.40
2016,04,01,12,35,18.40
2016,04,01,12,36,18.40
2016,04,01,12,37,18.40
2016,04,01,12,38,18.40
2016,04,01,12,39,18.50
2016,04,01,12,40,18.60
2016,04,01,12,41,18.60
2016,04,01,12,42,18.70
2016,04,01,12,43,18.80
2016,04,01,12,44,18.90
2016,04,01,12,45,18.90
2016,04,01,12,46,18.90
2016,04,01,12,47,18.90
2016,04,01,12,48,18.90
2016,04,01,12,49,18.90
2016,04,01,12,50,18.90
2016,04,01,12,51,18.80
2016,04,01,12,52,18.70
2016,04,01,12,53,18.60
2016,04,01,12,54,18.60
2016,04,01,12,55,18.60
2016,04,01,12,56,18.60
2016,04,01,12,57,18.60
2016,04,01,12,58,18.60
2016,04,01,12,59,18.70
2016,04,01,13,00,18.70
2016,04,01,13,01,18.80
2016,04,01,13,02,18.80
2016,04,01,13,03,18.80
2016,04,01,13,04,18.90
2016,04,01,13,05,18.90
2016,04,01,13,06,18.90
2016,04,01,13,07,18.90
2016,04,01,13,08,18.90
2016,04,01,13,09,18.90
2016,04,01,13,10,18.70
2016,04,01,13,11,18.70
2016,04,01,13,12,18.70
2016,04,01,13,13,18.70
2016,04,01,13,14,18.70
2016,04,01,13,15,18.70
2016,04,01,13,16,18.70
2016,04,01,13,17,18.70
2016,04,01,13,18,18.70
2016,04,01,13,19,18.80
2016,04,01,13,20,18.80
2016,04,01,13,21,18.80
2016,04,01,13,22,18.80
2016,04,01,13,23,18.80
2016,04,01,13,24,18.80
2016,04,01,13,25,18.80
2016,04,01,13,26,18.90
2016,04,01,13,27,18.90
2016,04,01,13,28,18.90
2016,04,01,13,29,18.90
2016,04,01,13,30,18.90
2016,04,01,13,31,18.90
2016,04,01,13,32,18.90
2016,04,01,13,33,18.90
2016,04,01,13,34,18.90
2016,04,01,13,35,19.00
2016,04,01,13,36,19.10
2016,04,01,13,37,19.10
2016,04,01,13,38,19.10
2016,04,01,13,39,19.10
2016,04,01,13,40,19.10
2016,04,01,13,41,19.10
2016,04,01,13,42,19.10
2016,04,01,13,43,19.10
2016,04,01,13,44,19.10
2016,04,01,13,45,19.10
2016,04,01,13,46,19.10
2016,04,01,13,47,19.10
2016,04,01,13,48,19.20
2016,04,01,13,49,19.20
2016,04,01,13,50,19.30
2016,04,01,13,51,19.40
2016,04,01,13,52,19.40
2016,04,01,13,53,19.50
2016,04,01,13,54,19.60
2016,04,01,13,55,19.70
2016,04,01,13,56,19.70
2016,04,01,13,57,19.80
2016,04,01,13,58,19.90
2016,04,01,13,59,19.90
2016,04,01,14,00,19.90
2016,04,01,14,01,19.90
2016,04,01,14,02,19.90
2016,04,01,14,03,19.90
2016,04,01,14,04,20.00
2016,04,01,14,05,20.10
2016,04,01,14,06,20.10
2016,04,01,14,07,20.10
2016,04,01,14,08,20.10
2016,04,01,14,09,20.00
2016,04,01,14,10,19.90
2016,04,01,14,11,19.90
2016,04,01,14,12,19.90
2016,04,01,14,13,19.80
2016,04,01,14,14,19.80
2016,04,01,14,15,19.80
2016,04,01,14,16,19.70
2016,04,01,14,17,19.70
2016,04,01,14,18,19.80
2016,04,01,14,19,19.90
2016,04,01,14,20,19.90
2016,04,01,14,21,19.90
2016,04,01,14,22,19.90
2016,04,01,14,23,19.90
2016,04,01,14,24,20.10
2016,04,01,14,25,20.00
2016,04,01,14,26,19.90
2016,04,01,14,27,20.00
2016,04,01,14,28,19.90
2016,04,01,14,29,19.90
2016,04,01,14,30,19.90
2016,04,01,14,31,19.90
2016,04,01,14,32,19.90
2016,04,01,14,33,19.90
2016,04,01,14,34,19.90
2016,04,01,14,35,19.80
2016,04,01,14,36,19.80
2016,04,01,14,37,19.80
2016,04,01,14,38,19.80
2016,04,01,14,39,19.80
2016,04,01,14,40,19.80
2016,04,01,14,41,19.80
2016,04,01,14,42,19.70
2016,04,01,14,43,19.70
2016,04,01,14,44,19.70
2016,04,01,14,45,19.70
2016,04,01,14,46,19.70
2016,04,01,14,47,19.70
2016,04,01,14,48,19.80
2016,04,01,14,49,19.90
2016,04,01,14,50,19.90
2016,04,01,14,51,20.00
2016,04,01,14,52,19.90
2016,04,01,14,53,19.90
2016,04,01,14,54,19.90
2016,04,01,14,55,19.90
2016,04,01,14,56,19.90
2016,04,01,14,57,19.90
2016,04,01,14,58,19.90
2016,04,01,14,59,19.90
2016,04,01,15,00,20.00
2016,04,01,15,01,19.90
2016,04,01,15,02,19.90
2016,04,01,15,03,19.90
2016,04,01,15,04,19.90
2016,04,01,15,05,19.90
2016,04,01,15,06,19.90
2016,04,01,15,07,20.00
2016,04,01,15,08,20.10
2016,04,01,15,09,20.10
2016,04,01,15,10,20.20
2016,04,01,15,11,20.10
2016,04,01,15,12,20.10
2016,04,01,15,13,20.10
2016,04,01,15,14,20.00
2016,04,01,15,15,19.90
2016,04,01,15,16,19.90
2016,04,01,15,17,19.90
2016,04,01,15,18,19.90
2016,04,01,15,19,19.90
2016,04,01,15,20,19.90
2016,04,01,15,21,19.90
2016,04,01,15,22,19.80
2016,04,01,15,23,19.80
2016,04,01,15,24,19.70
2016,04,01,15,25,19.60
2016,04,01,15,26,19.60
2016,04,01,15,27,19.50
2016,04,01,15,28,19.50
2016,04,01,15,29,19.40
2016,04,01,15,30,19.30
2016,04,01,15,31,19.20
2016,04,01,15,32,19.20
2016,04,01,15,33,19.10
2016,04,01,15,34,19.10
2016,04,01,15,35,19.10
2016,04,01,15,36,19.10
2016,04,01,15,37,19.00
2016,04,01,15,38,18.90
2016,04,01,15,39,18.90
2016,04,01,15,40,18.90
2016,04,01,15,41,18.90
2016,04,01,15,42,18.80
2016,04,01,15,43,18.80
2016,04,01,15,44,18.70
2016,04,01,15,45,18.70
2016,04,01,15,46,18.70
2016,04,01,15,47,18.70
2016,04,01,15,48,18.60
2016,04,01,15,49,18.60
2016,04,01,15,50,18.60
2016,04,01,15,51,18.60
2016,04,01,15,52,18.50
2016,04,01,15,53,18.50
2016,04,01,15,54,18.50
2016,04,01,15,55,18.40
2016,04,01,15,56,18.40
2016,04,01,15,57,18.30
2016,04,01,15,58,18.30
2016,04,01,15,59,18.20
2016,04,01,16,00,18.20
2016,04,01,16,01,18.20
2016,04,01,16,02,18.20
2016,04,01,16,03,18.20
2016,04,01,16,04,18.20
2016,04,01,16,05,18.20
2016,04,01,16,06,18.20
2016,04,01,16,07,18.20
2016,04,01,16,08,18.10
2016,04,01,16,09,18.10
2016,04,01,16,10,18.10
2016,04,01,16,11,18.10
2016,04,01,16,12,18.10
2016,04,01,16,13,18.10
2016,04,01,16,14,18.10
2016,04,01,16,15,18.10
2016,04,01,16,16,18.10
2016,04,01,16,17,18.10
2016,04,01,16,18,18.10
2016,04,01,16,19,17.90
2016,04,01,16,20,17.90
2016,04,01,16,21,17.90
2016,04,01,16,22,17.90
2016,04,01,16,23,17.90
2016,04,01,16,24,17.80
2016,04,01,16,25,17.80
2016,04,01,16,26,17.80
2016,04,01,16,27,17.80
2016,04,01,16,28,17.80
2016,04,01,16,29,17.70
2016,04,01,16,30,17.70
2016,04,01,16,31,17.70
2016,04,01,16,32,17.60
2016,04,01,16,33,17.60
2016,04,01,16,34,17.60
2016,04,01,16,35,17.60
2016,04,01,16,36,17.50
2016,04,01,16,37,17.50
2016,04,01,16,38,17.50
2016,04,01,16,39,17.40
2016,04,01,16,40,17.40
2016,04,01,16,41,17.40
2016,04,01,16,42,17.30
2016,04,01,16,43,17.30
2016,04,01,16,44,17.20
2016,04,01,16,45,17.10
2016,04,01,16,46,17.10
2016,04,01,16,47,17.10
2016,04,01,16,48,17.10
2016,04,01,16,49,17.10
2016,04,01,16,50,17.00
2016,04,01,16,51,17.00
2016,04,01,16,52,17.00
2016,04,01,16,53,16.90
2016,04,01,16,54,16.90
2016,04,01,16,55,16.90
2016,04,01,16,56,16.80
2016,04,01,16,57,16.80
2016,04,01,16,58,16.80
2016,04,01,16,59,16.80
2016,04,01,17,00,16.80
2016,04,01,17,01,16.80
2016,04,01,17,02,16.80
2016,04,01,17,03,16.70
2016,04,01,17,04,16.70
2016,04,01,17,05,16.70
2016,04,01,17,06,16.70
2016,04,01,17,07,16.70
2016,04,01,17,08,16.70
2016,04,01,17,09,16.70
2016,04,01,17,10,16.60
2016,04,01,17,11,16.60
2016,04,01,17,12,16.60
2016,04,01,17,13,16.60
2016,04,01,17,14,16.50
2016,04,01,17,15,16.40
2016,04,01,17,16,16.40
2016,04,01,17,17,16.40
2016,04,01,17,18,16.40
2016,04,01,17,19,16.40
2016,04,01,17,20,16.40
2016,04,01,17,21,16.40
2016,04,01,17,22,16.40
2016,04,01,17,23,16.40
2016,04,01,17,24,16.30
2016,04,01,17,25,16.30
2016,04,01,17,26,16.30
2016,04,01,17,27,16.30
2016,04,01,17,28,16.20
2016,04,01,17,29,16.20
2016,04,01,17,30,16.20
2016,04,01,17,31,16.20
2016,04,01,17,32,16.10
2016,04,01,17,33,16.10
2016,04,01,17,34,16.10
2016,04,01,17,35,16.10
2016,04,01,17,36,16.10